Date,TemperatureHighF,TemperatureAvgF,TemperatureLowF,DewpointHighF,DewpointAvgF,DewpointLowF,HumidityHigh,HumidityAvg,HumidityLow,PressureMaxIn,PressureMinIn,WindSpeedMaxMPH,WindSpeedAvgMPH,GustSpeedMaxMPH,PrecipitationSumIn
2013-1-1,32.1,12.8,1.5,29.5,6.4,-3.8,90,75,68,29.94,29.63,9,3,17,0.00
2013-1-2,17.2,6.8,-10.0,12.6,0.1,-16.6,83,74,64,30.26,29.82,8,2,12,0.00
2013-1-3,10.5,-0.5,-11.0,6.1,-6.7,-17.5,82,74,69,30.26,29.83,2,0,3,0.01
2013-1-4,32.1,27.9,11.9,26.1,22.8,7.7,89,81,75,29.83,29.65,12,6,22,0.01
2013-1-5,32.5,22.7,8.4,27.0,14.6,2.7,85,71,56,30.22,29.72,10,2,22,0.00
2013-1-6,29.1,22.6,18.3,27.3,19.4,11.4,93,87,74,30.05,29.79,3,1,22,0.20
2013-1-7,26.3,18.1,7.9,20.7,12.7,2.7,85,79,73,30.38,30.04,5,2,22,0.00
2013-1-8,34.4,31.5,26.7,29.4,25.6,20.8,89,79,72,30.29,30.05,7,3,22,0.00
2013-1-9,42.3,31.3,11.2,33.4,25.1,7.6,92,79,64,30.27,29.76,11,2,22,0.02
2013-1-10,40.2,33.0,20.6,29.0,23.7,17.6,89,69,54,30.52,30.00,6,2,22,0.00
2013-1-11,34.0,28.0,17.2,32.0,24.6,14.0,94,87,75,30.46,29.93,4,1,22,0.02
2013-1-12,52.9,40.6,33.7,44.6,37.4,32.2,95,89,73,29.95,29.88,2,0,22,0.00
2013-1-13,56.9,43.8,36.2,51.8,41.4,34.6,97,91,78,29.96,29.67,5,1,7,0.20
2013-1-14,47.1,38.8,32.4,46.6,31.2,21.9,98,75,57,30.25,29.62,8,3,14,0.08
2013-1-15,33.8,30.3,23.5,21.7,19.2,16.5,80,64,50,30.32,30.18,4,1,5,0.00
2013-1-16,36.3,31.1,25.4,28.2,24.1,19.7,84,75,67,30.16,29.66,7,2,9,0.00
2013-1-17,35.3,15.0,-0.2,31.1,3.9,-10.6,93,62,46,30.22,29.66,10,4,12,0.03
2013-1-18,23.5,9.7,-4.3,13.9,-2.4,-11.3,81,59,38,30.34,30.07,5,1,13,0.00
2013-1-19,41.1,34.6,24.4,34.4,26.1,10.9,92,72,48,30.02,29.52,7,4,13,0.04
2013-1-20,47.3,30.4,8.6,35.4,17.4,-2.1,85,59,42,29.99,29.19,14,8,25,0.06
2013-1-21,8.1,5.3,1.7,-1.1,-4.8,-7.9,72,62,57,30.06,29.84,5,1,13,0.00
2013-1-22,8.4,4.1,0.5,0.9,-2.5,-5.6,77,74,68,29.93,29.80,3,1,5,0.00
2013-1-23,-2.4,-7.4,-12.5,-14.8,-19.0,-22.4,68,57,43,30.26,30.15,3,1,12,0.00
2013-1-24,5.2,-1.4,-8.4,-10.0,-14.3,-18.3,64,54,45,30.42,30.18,7,2,14,0.00
2013-1-25,11.6,4.7,-2.8,-3.0,-7.3,-11.1,70,57,46,30.41,30.11,3,1,7,0.00
2013-1-26,15.6,9.0,0.5,4.6,-1.6,-5.6,78,62,47,30.32,30.10,3,0,6,0.00
2013-1-27,18.1,11.4,4.1,4.3,-1.2,-5.7,71,58,34,30.53,30.33,2,1,6,0.00
2013-1-28,22.2,18.6,13.6,19.7,11.7,1.9,90,75,49,30.41,29.91,4,1,6,0.20
2013-1-29,30.6,21.1,11.1,29.3,17.5,7.5,95,86,80,30.10,29.74,3,1,6,0.00
2013-1-30,64.3,46.5,31.6,53.1,41.9,30.3,98,85,58,29.71,29.09,14,3,17,0.03
2013-1-31,52.6,33.7,13.8,51.2,24.8,5.2,98,71,46,29.53,28.76,15,8,22,0.57
2013-2-1,15.7,11.4,7.7,3.0,-0.6,-2.4,67,58,46,30.12,29.54,5,3,11,0.00
2013-2-2,14.4,10.7,6.5,9.9,3.6,-4.3,84,73,58,30.16,29.96,3,1,6,0.06
2013-2-3,17.0,11.4,4.7,10.1,5.9,0.2,82,78,70,29.98,29.75,4,1,6,0.00
2013-2-4,17.3,11.3,-0.8,11.1,1.3,-8.3,84,65,39,29.91,29.75,5,2,11,0.01
2013-2-5,21.4,7.6,-13.0,5.4,-5.7,-20.0,73,57,29,29.98,29.82,1,0,6,0.00
2013-2-6,25.1,16.2,9.2,20.1,3.3,-9.6,83,58,36,30.36,29.77,8,2,11,0.00
2013-2-7,8.6,4.3,-1.2,-2.2,-7.7,-12.8,64,57,49,30.56,30.36,8,3,13,0.00
2013-2-8,13.3,8.2,4.3,9.6,3.5,-3.9,85,81,67,30.35,29.99,10,6,14,0.16
2013-2-9,19.1,10.7,-1.6,10.5,4.3,-7.6,84,75,62,30.36,30.07,8,2,11,0.01
2013-2-10,27.9,7.9,-12.8,13.0,-2.7,-19.8,80,63,34,30.43,30.11,4,0,7,0.00
2013-2-11,38.0,24.5,13.8,35.5,18.3,4.5,91,77,64,30.10,29.50,9,2,9,0.06
2013-2-12,37.8,35.1,34.0,32.2,30.7,27.7,93,85,68,29.69,29.49,9,6,14,0.05
2013-2-13,35.5,31.8,28.4,27.4,24.7,21.9,86,75,58,29.78,29.69,3,1,10,0.00
2013-2-14,38.5,32.5,28.1,27.3,22.8,19.6,83,68,47,29.85,29.71,4,1,5,0.00
2013-2-15,38.8,34.3,24.1,33.9,25.8,16.1,93,72,57,29.93,29.68,14,6,20,0.02
2013-2-16,23.6,16.4,6.7,12.8,4.5,-0.1,73,60,43,30.04,29.94,4,1,5,0.00
2013-2-17,14.8,8.9,2.6,1.8,-1.5,-4.1,74,62,49,29.97,29.81,6,3,14,0.00
2013-2-18,19.7,9.5,2.8,0.9,-3.2,-6.3,71,57,37,30.19,29.98,5,2,14,0.00
2013-2-19,33.4,24.7,9.7,31.9,15.1,1.1,94,68,47,30.04,29.54,8,2,14,0.24
2013-2-20,30.6,24.9,11.7,22.6,16.5,6.7,87,71,54,29.84,29.56,9,6,16,0.03
2013-2-21,20.8,13.1,6.7,15.4,6.2,-0.7,80,73,67,30.33,29.85,6,4,14,0.03
2013-2-22,34.0,28.8,22.1,23.5,21.4,17.8,84,74,64,30.39,30.11,7,2,9,0.00
2013-2-23,34.0,31.1,27.8,32.8,27.9,22.4,96,88,78,30.10,29.81,2,1,4,0.04
2013-2-24,37.8,34.5,32.5,33.1,29.6,25.9,96,83,63,29.90,29.75,3,1,6,0.00
2013-2-25,38.6,34.4,30.1,32.0,29.8,27.3,91,83,70,30.17,29.91,1,0,5,0.00
2013-2-26,40.6,34.6,26.4,30.4,28.3,23.3,91,78,62,30.24,29.98,7,2,7,0.00
2013-2-27,35.8,33.6,32.5,32.2,30.4,27.2,97,88,71,29.97,29.56,12,6,20,0.60
2013-2-28,38.6,34.3,31.8,34.9,32.4,30.8,97,93,84,29.61,29.47,5,1,7,0.06
2013-3-1,34.1,32.1,27.6,31.3,28.1,23.7,94,85,76,29.79,29.61,6,2,9,0.00
2013-3-2,27.3,27.0,26.7,23.7,22.8,22.2,86,84,82,29.79,29.78,2,2,5,0.00
2013-3-3,27.8,23.1,19.4,18.5,16.1,14.2,81,75,61,29.77,29.71,4,2,16,0.00
2013-3-4,27.5,22.8,18.6,20.6,15.2,11.7,82,73,57,29.91,29.74,5,3,15,0.00
2013-3-5,35.6,28.5,23.2,26.9,21.3,17.6,83,75,61,30.07,29.91,3,1,12,0.01
2013-3-6,40.5,35.6,31.6,30.7,28.8,26.9,89,77,65,30.16,30.05,11,5,12,0.00
2013-3-7,34.3,32.0,29.5,27.5,23.3,20.8,78,70,62,30.23,30.13,9,4,12,0.00
2013-3-8,41.5,32.4,24.1,23.7,21.4,19.9,84,64,42,30.32,30.18,5,2,12,0.00
2013-3-9,47.0,30.6,16.5,24.5,19.9,13.0,87,68,35,30.35,30.25,2,0,12,0.00
2013-3-10,47.1,35.6,23.9,30.1,26.3,20.3,87,70,47,30.23,29.95,3,0,3,0.00
2013-3-11,51.3,41.4,36.0,35.3,31.6,29.0,80,69,42,29.98,29.70,6,0,6,0.00
2013-3-12,49.2,42.4,37.2,44.8,38.6,32.3,95,87,63,29.75,29.64,7,3,11,0.14
2013-3-13,41.2,36.4,32.7,32.4,28.7,23.3,86,74,51,29.77,29.69,7,3,7,0.00
2013-3-14,32.4,20.6,14.8,26.9,10.1,4.1,91,64,52,29.92,29.68,6,4,19,0.05
2013-3-15,34.7,24.8,14.6,28.1,14.9,5.2,89,66,53,29.92,29.52,6,2,13,0.02
2013-3-16,24.8,19.5,12.4,16.4,5.8,1.5,70,55,44,29.90,29.76,5,2,13,0.00
2013-3-17,25.4,17.2,5.8,5.7,1.3,-4.1,78,52,28,30.31,29.90,5,2,7,0.00
2013-3-18,30.1,20.6,4.3,17.6,5.7,-1.1,78,55,31,30.38,29.97,7,3,10,0.00
2013-3-19,36.2,31.1,24.4,33.5,28.4,18.2,94,90,73,29.94,29.62,6,2,12,0.21
2013-3-20,33.1,28.2,20.2,27.4,21.9,16.4,87,78,57,29.68,29.60,8,4,10,0.00
2013-3-21,34.7,28.5,21.9,18.4,15.9,14.1,73,60,43,29.64,29.58,9,5,13,0.00
2013-3-22,32.5,28.2,25.0,24.5,19.6,12.5,88,71,46,29.72,29.58,4,2,11,0.01
2013-3-23,38.3,34.1,26.6,24.4,22.1,20.5,80,62,50,29.82,29.69,7,4,16,0.00
2013-3-24,38.3,35.1,32.9,25.6,24.0,22.3,73,64,54,29.86,29.79,5,2,14,0.00
2013-3-25,42.5,32.1,20.2,28.5,24.4,17.5,90,75,52,29.74,29.59,7,2,10,0.00
2013-3-26,47.9,39.1,29.5,25.2,22.9,20.1,73,53,36,29.76,29.64,6,2,9,0.00
2013-3-27,46.0,40.0,34.7,29.3,27.5,22.7,78,61,50,29.90,29.73,4,2,7,0.00
2013-3-28,50.8,42.4,36.3,35.7,32.0,27.4,75,67,55,30.02,29.89,4,1,7,0.00
2013-3-29,47.9,41.3,36.3,36.9,32.2,29.3,91,71,52,30.05,30.00,4,2,8,0.04
2013-3-30,50.8,38.9,27.2,30.4,21.7,12.8,92,57,24,30.09,29.99,4,1,6,0.00
2013-3-31,58.0,42.0,26.6,40.6,27.7,18.8,92,64,25,29.98,29.58,11,3,12,0.08
2013-4-1,43.5,38.3,27.6,40.7,26.1,8.9,94,65,31,29.77,29.43,13,5,25,0.03
2013-4-2,34.0,28.2,22.7,17.0,10.9,5.7,74,50,31,29.86,29.75,8,4,25,0.00
2013-4-3,39.6,31.8,24.8,17.2,10.5,6.2,53,41,25,30.17,29.87,9,5,24,0.00
2013-4-4,48.5,37.7,26.0,22.0,16.9,12.5,69,45,26,30.20,29.83,12,5,24,0.00
2013-4-5,41.2,36.2,30.7,34.5,23.0,13.0,93,60,36,30.00,29.75,10,4,24,0.04
2013-4-6,41.1,32.0,24.2,16.0,8.7,1.4,64,39,22,30.27,30.01,7,2,17,0.00
2013-4-7,61.8,46.0,32.8,39.3,28.9,12.3,81,54,27,30.12,29.58,13,4,23,0.04
2013-4-8,50.4,44.0,39.8,35.8,32.4,29.7,79,64,49,30.10,29.83,5,2,16,0.03
2013-4-9,50.2,43.6,37.5,42.9,38.9,35.9,95,84,69,29.98,29.68,6,3,12,0.26
2013-4-10,48.6,45.3,40.8,43.5,37.1,28.8,94,74,55,29.98,29.87,4,1,6,0.02
2013-4-11,39.8,35.0,31.6,27.4,17.8,13.6,61,50,37,30.15,29.93,6,3,13,0.00
2013-4-12,34.4,32.7,29.4,33.1,26.3,13.6,95,80,42,30.09,29.65,8,4,21,0.71
2013-4-13,42.2,39.2,34.4,39.1,36.9,33.4,97,91,83,29.70,29.65,5,3,16,0.00
2013-4-14,45.4,39.9,30.7,36.2,31.5,26.7,93,73,50,30.17,29.81,4,2,14,0.03
2013-4-15,59.2,43.8,28.1,38.4,31.5,25.0,91,66,35,30.25,30.02,8,2,13,0.00
2013-4-16,62.4,57.9,42.9,51.4,43.3,37.2,80,59,51,30.02,29.84,14,6,16,0.01
2013-4-17,54.5,45.4,38.6,32.4,29.2,20.0,74,55,27,30.29,30.09,5,2,14,0.00
2013-4-18,73.2,53.2,40.3,51.9,38.6,24.0,83,59,39,30.26,29.64,12,5,34,0.02
2013-4-19,76.8,64.1,44.1,57.4,51.0,35.3,89,64,42,29.65,29.27,14,9,37,0.14
2013-4-20,46.8,40.4,31.9,34.9,28.1,17.7,86,62,47,30.27,29.58,12,8,34,0.09
2013-4-21,45.2,36.1,28.8,22.2,16.5,12.9,64,46,27,30.62,30.32,4,2,13,0.00
2013-4-22,61.6,45.6,27.6,23.8,19.4,13.4,79,41,15,30.61,30.36,5,1,7,0.00
2013-4-23,60.2,48.6,34.0,38.2,27.1,19.3,76,45,28,30.36,29.99,7,2,14,0.00
2013-4-24,73.3,58.8,39.3,55.0,43.4,34.8,86,60,28,29.91,29.47,11,3,14,0.06
2013-4-25,54.5,45.7,38.3,43.0,29.5,23.3,88,56,30,30.19,29.60,14,4,30,0.02
2013-4-26,54.8,45.5,39.9,40.3,34.1,27.3,93,67,36,30.38,30.20,6,1,6,0.13
2013-4-27,59.2,46.0,32.8,39.3,33.0,28.8,87,63,36,30.39,30.22,3,1,4,0.00
2013-4-28,71.5,56.0,37.3,43.8,38.1,34.4,90,56,27,30.23,29.98,6,2,9,0.00
2013-4-29,63.1,58.7,51.4,46.3,44.2,40.9,74,59,45,30.05,29.99,7,2,10,0.00
2013-4-30,70.8,60.9,53.3,52.8,50.2,45.8,92,69,49,30.17,30.05,4,1,9,0.02
2013-5-1,79.6,65.2,47.9,53.7,46.8,40.7,92,58,25,30.32,30.18,4,1,6,0.00
2013-5-2,81.2,67.5,51.3,51.9,44.0,35.2,82,47,23,30.35,30.23,6,2,8,0.00
2013-5-3,74.2,64.3,53.2,48.8,40.4,31.1,74,45,21,30.32,30.19,7,4,11,0.00
2013-5-4,73.2,56.9,45.8,42.1,39.3,34.8,82,56,26,30.25,30.20,3,0,7,0.00
2013-5-5,81.4,66.4,49.5,51.9,42.1,32.9,83,48,18,30.13,30.00,3,1,5,0.00
2013-5-6,79.8,66.4,50.2,47.2,38.7,27.3,77,41,16,30.09,29.93,4,2,7,0.00
2013-5-7,82.2,66.7,48.9,51.3,41.5,27.9,75,45,14,30.03,29.93,5,1,6,0.00
2013-5-8,83.8,66.7,50.7,61.2,50.5,43.0,95,62,25,30.02,29.88,4,1,7,0.30
2013-5-9,77.2,66.3,56.9,61.4,56.1,46.2,97,74,34,29.90,29.75,6,1,14,0.16
2013-5-10,67.4,61.4,55.9,59.3,54.6,49.6,96,79,56,29.91,29.68,5,2,13,0.01
2013-5-11,61.8,56.2,50.4,60.1,52.6,45.1,96,88,76,29.67,29.51,10,3,13,0.35
2013-5-12,53.1,48.5,39.3,46.4,37.7,26.1,89,69,35,29.66,29.54,15,7,18,0.06
2013-5-13,51.6,44.0,38.0,36.2,31.4,28.1,74,62,41,29.97,29.66,10,5,14,0.00
2013-5-14,59.0,47.1,32.8,34.9,30.3,23.9,92,57,26,30.06,29.93,4,1,13,0.00
2013-5-15,62.9,44.8,33.1,47.5,34.1,28.5,84,68,31,29.95,29.44,6,1,13,0.00
2013-5-16,68.9,57.8,49.8,47.3,40.7,35.3,80,55,29,29.88,29.52,9,4,16,0.00
2013-5-17,69.6,58.2,44.5,43.9,38.3,26.7,82,52,20,30.13,29.88,3,1,11,0.00
2013-5-18,73.2,59.1,42.8,44.8,38.5,29.7,88,52,21,30.22,30.12,5,1,5,0.00
2013-5-19,64.5,56.9,46.0,57.6,49.5,41.5,94,77,59,30.16,29.96,4,1,6,0.03
2013-5-20,73.9,64.9,56.3,60.6,57.7,54.9,96,79,55,29.96,29.87,3,1,6,0.00
2013-5-21,64.7,59.9,56.9,59.9,56.3,54.2,96,88,71,29.91,29.70,10,3,13,0.50
2013-5-22,77.2,65.5,56.2,67.3,61.5,55.1,96,88,68,29.76,29.52,9,1,9,0.21
2013-5-23,76.0,66.5,51.1,67.3,60.8,47.0,96,83,53,29.75,29.58,8,4,8,0.34
2013-5-24,53.5,48.0,43.3,46.8,41.3,36.3,94,79,54,30.04,29.75,8,5,17,0.30
2013-5-25,55.4,49.4,46.5,43.1,36.9,34.5,87,63,46,30.07,30.00,10,5,17,0.01
2013-5-26,63.9,52.4,45.7,42.9,38.2,29.7,86,63,28,30.01,29.93,9,4,17,0.08
2013-5-27,68.6,58.1,47.0,43.9,35.1,30.3,64,44,25,30.13,30.01,5,1,17,0.00
2013-5-28,73.2,60.1,42.2,52.7,42.0,33.0,87,55,26,30.12,29.94,5,1,17,0.00
2013-5-29,78.3,67.1,56.5,65.7,59.1,44.8,96,77,51,29.93,29.75,9,3,17,0.21
2013-5-30,84.9,74.1,62.9,65.9,63.7,60.8,93,72,50,29.99,29.86,5,3,17,0.00
2013-5-31,90.1,79.3,68.1,69.2,63.3,60.1,92,60,37,29.96,29.80,9,4,17,0.15
2013-6-1,86.5,77.3,70.9,69.7,65.0,62.0,94,67,50,29.84,29.63,9,4,17,0.38
2013-6-2,77.2,71.8,67.6,68.9,64.8,59.1,96,80,56,29.68,29.54,10,5,17,0.77
2013-6-3,67.1,59.4,52.9,60.2,49.9,44.0,91,72,50,29.81,29.66,9,4,18,0.02
2013-6-4,67.9,58.5,47.6,45.4,42.6,40.0,82,57,38,30.05,29.81,5,2,17,0.00
2013-6-5,66.6,61.3,55.4,45.9,41.1,35.6,70,49,32,30.16,30.06,4,1,6,0.00
2013-6-6,56.3,54.5,53.2,52.2,49.5,45.2,96,84,67,30.09,29.97,4,2,5,0.26
2013-6-7,58.0,55.6,53.2,56.9,54.5,52.1,97,96,92,29.96,29.79,4,2,6,0.51
2013-6-8,62.3,58.1,54.2,57.7,55.3,53.4,98,90,77,29.95,29.74,3,1,6,0.00
2013-6-9,79.8,67.3,57.6,58.0,54.9,48.1,92,68,33,30.09,29.94,6,2,12,0.00
2013-6-10,79.4,66.7,54.7,61.6,56.5,50.8,93,73,37,30.11,29.82,3,1,5,0.01
2013-6-11,61.8,58.7,55.9,59.8,57.5,54.8,96,96,92,29.80,29.54,7,4,12,1.62
2013-6-12,76.5,64.4,56.2,56.6,53.9,49.9,97,72,44,29.80,29.68,5,2,9,0.04
2013-6-13,70.9,63.3,55.0,59.9,56.0,53.3,95,78,56,29.75,29.59,4,1,7,0.00
2013-6-14,76.5,65.6,53.5,56.4,51.3,40.6,96,64,31,29.82,29.65,6,2,9,0.00
2013-6-15,76.5,65.1,49.6,49.6,45.4,39.3,85,52,29,29.91,29.79,7,3,11,0.00
2013-6-16,64.3,59.5,55.0,58.4,53.4,45.4,96,81,55,29.81,29.60,4,1,10,0.57
2013-6-17,67.4,61.6,52.2,60.1,55.0,48.7,97,80,60,29.89,29.66,5,2,11,0.01
2013-6-18,70.8,59.7,47.7,52.4,46.3,39.7,95,66,34,29.96,29.87,4,1,11,0.00
2013-6-19,69.9,59.5,47.6,48.3,41.0,35.1,86,54,29,30.09,29.97,3,1,11,0.00
2013-6-20,75.8,63.0,46.4,49.4,46.7,43.8,92,59,32,30.18,30.10,5,2,11,0.00
2013-6-21,83.4,69.7,58.3,58.7,51.5,44.8,70,53,37,30.17,30.09,3,1,11,0.00
2013-6-22,70.9,67.2,63.1,65.8,61.7,56.4,96,83,67,30.11,29.97,3,1,11,0.04
2013-6-23,83.2,71.8,64.2,72.4,67.7,63.3,98,88,70,30.00,29.83,3,1,11,0.00
2013-6-24,87.8,77.2,70.3,71.7,68.7,63.2,90,76,55,29.90,29.75,8,3,12,0.41
2013-6-25,84.1,76.0,71.6,71.6,68.2,64.8,89,77,63,29.78,29.63,7,4,11,0.04
2013-6-26,84.3,74.2,67.8,69.5,67.4,65.3,93,80,60,29.69,29.64,5,2,11,0.00
2013-6-27,81.1,73.2,66.4,69.0,66.3,61.6,94,80,57,29.70,29.63,7,2,11,0.00
2013-6-28,66.4,60.5,57.2,60.4,58.3,56.1,96,92,81,29.64,29.41,7,3,11,1.05
2013-6-29,77.2,66.5,59.9,62.3,60.0,58.7,96,81,55,29.60,29.42,4,1,11,0.04
2013-6-30,77.7,69.0,61.2,61.8,60.2,58.1,96,76,53,29.86,29.60,4,1,11,0.00
2013-7-1,72.5,67.2,61.6,60.6,58.0,52.4,92,74,52,30.03,29.86,7,2,11,0.01
2013-7-2,72.5,65.6,60.1,64.5,58.9,53.3,90,79,71,30.04,30.00,5,2,14,0.00
2013-7-3,84.0,71.5,62.4,71.0,65.1,60.3,94,81,62,30.09,30.02,2,0,14,0.00
2013-7-4,84.0,75.8,68.1,76.0,70.1,66.6,95,83,66,30.08,29.96,5,2,6,0.47
2013-7-5,86.1,78.7,71.8,70.7,69.0,67.7,88,73,57,30.04,29.93,7,3,7,0.00
2013-7-6,85.9,76.8,72.1,69.8,66.4,61.5,89,72,46,30.00,29.90,7,3,12,0.00
2013-7-7,78.1,73.0,70.1,72.2,67.7,62.1,96,84,69,29.93,29.84,4,1,5,0.41
2013-7-8,79.9,71.1,64.5,67.9,64.8,60.4,97,82,61,29.96,29.84,5,2,6,1.05
2013-7-9,85.5,76.3,65.3,71.9,68.0,62.9,93,77,60,29.98,29.83,2,0,4,0.00
2013-7-10,83.0,75.9,68.9,73.1,69.9,64.5,95,82,68,29.83,29.55,8,4,12,1.01
2013-7-11,78.5,71.0,65.6,69.4,61.6,54.7,95,74,44,29.96,29.63,4,2,12,0.00
2013-7-12,76.8,67.4,59.0,59.6,56.4,53.2,90,70,44,30.11,29.97,5,1,12,0.00
2013-7-13,84.0,72.0,57.5,68.0,61.7,55.6,94,72,46,30.20,30.13,3,1,12,0.00
2013-7-14,89.5,80.0,70.8,70.9,69.0,67.0,89,71,48,30.22,30.12,3,1,12,0.00
2013-7-15,91.4,80.1,70.3,71.1,66.9,63.6,88,67,42,30.16,30.08,3,1,12,0.00
2013-7-16,92.5,78.7,69.9,71.5,68.7,66.4,92,73,43,30.16,30.07,2,1,12,0.00
2013-7-17,92.3,81.7,73.9,75.4,71.1,67.1,88,71,55,30.08,29.89,7,3,12,0.08
2013-7-18,87.6,77.3,71.3,75.4,71.1,69.5,94,82,59,29.95,29.81,5,2,17,0.14
2013-7-19,92.3,81.9,72.0,74.6,72.1,69.4,95,74,49,29.81,29.50,14,7,24,0.00
2013-7-22,77.7,69.8,53.9,60.7,55.0,51.3,93,61,42,29.96,29.74,3,1,6,0.00
2013-7-23,84.9,74.2,64.7,68.9,63.6,58.0,87,71,53,29.72,29.44,6,2,8,0.06
2013-7-24,72.7,62.8,54.7,65.4,50.9,44.9,83,66,48,29.96,29.46,6,3,13,0.00
2013-7-25,72.3,60.7,48.3,52.4,49.2,46.4,93,68,43,30.10,29.97,4,1,9,0.00
2013-7-26,77.2,64.0,50.1,59.1,53.5,47.9,93,71,43,30.07,29.94,3,1,8,0.00
2013-7-27,81.1,68.3,51.6,64.8,58.5,49.9,95,73,52,29.95,29.81,4,1,8,0.00
2013-7-28,76.3,69.6,65.2,69.3,66.0,63.7,96,89,72,29.86,29.78,4,1,8,0.28
2013-7-29,74.2,65.6,57.2,63.5,57.7,53.7,96,77,51,29.99,29.86,6,2,10,0.38
2013-7-30,75.4,66.6,57.5,60.2,57.8,55.9,95,75,54,30.06,30.00,4,2,11,0.00
2013-7-31,81.1,70.3,58.1,63.1,59.0,54.1,95,70,40,30.05,29.91,4,1,8,0.00
2013-8-1,78.5,69.2,63.7,67.2,63.6,59.8,95,83,61,29.89,29.66,6,1,10,0.60
2013-8-2,77.0,68.8,62.0,63.1,60.3,56.2,96,76,49,29.75,29.69,7,3,10,0.00
2013-8-3,75.3,67.1,59.2,61.3,58.2,54.3,96,75,48,29.76,29.68,5,3,11,0.10
2013-8-4,70.6,63.5,58.3,59.8,55.7,51.6,94,77,51,29.92,29.75,5,2,9,0.01
2013-8-5,74.6,62.3,49.6,52.5,48.7,41.8,95,66,36,30.00,29.92,3,1,8,0.00
2013-8-6,80.1,66.9,55.1,59.2,52.7,46.7,89,64,31,30.00,29.95,3,1,8,0.00
2013-8-7,80.1,70.0,58.3,66.0,59.4,54.0,87,70,52,29.97,29.80,8,3,16,0.02
2013-8-8,83.4,75.3,68.8,70.2,66.0,63.2,92,74,53,29.88,29.79,4,2,8,0.00
2013-8-9,80.1,72.8,67.9,69.1,67.4,64.2,95,84,64,29.83,29.68,7,1,8,0.39
2013-8-10,73.2,66.8,60.5,65.8,52.8,47.5,93,63,41,29.95,29.71,4,2,9,0.00
2013-8-11,77.2,66.7,56.2,56.8,55.0,52.3,94,68,43,30.00,29.91,6,3,9,0.00
2013-8-12,78.1,68.7,58.1,57.5,55.5,53.6,90,65,43,29.92,29.78,6,2,10,0.00
2013-8-13,76.0,65.8,61.0,64.9,61.4,55.8,96,87,63,29.77,29.59,5,1,8,0.41
2013-8-14,68.8,62.4,57.8,57.9,53.1,48.9,93,73,49,29.90,29.62,7,3,11,0.09
2013-8-15,74.6,62.8,51.7,55.5,52.1,49.5,93,71,43,29.98,29.90,9,4,15,0.00
2013-8-16,76.3,65.6,56.5,62.1,56.7,52.8,92,74,53,30.14,29.98,4,1,10,0.00
2013-8-17,77.7,65.4,53.3,58.9,53.9,47.8,95,71,37,30.23,30.14,2,0,4,0.00
2013-8-18,81.6,68.2,53.9,58.3,54.3,51.1,94,65,36,30.18,29.98,4,1,4,0.00
2013-8-19,82.0,71.3,62.0,61.9,59.2,56.8,90,68,45,29.99,29.88,4,2,7,0.00
2013-8-20,84.3,73.8,64.2,65.4,61.7,59.6,86,67,48,29.98,29.91,7,3,10,0.00
2013-8-21,86.1,76.0,67.1,67.6,63.9,60.0,79,67,52,30.03,29.87,6,4,14,0.00
2013-8-22,77.4,71.0,63.7,70.0,65.4,61.7,97,83,70,29.89,29.76,5,3,12,1.33
2013-8-23,72.1,64.8,58.4,62.0,55.5,51.5,95,74,50,30.12,29.85,4,2,6,0.00
2013-8-24,75.6,62.9,50.2,55.7,51.5,48.1,95,70,39,30.28,30.13,3,1,5,0.00
2013-8-25,77.0,66.0,53.5,61.2,53.7,47.0,92,68,35,30.27,30.01,4,2,9,0.02
2013-8-26,77.4,70.8,64.0,70.2,66.4,61.0,96,86,75,30.00,29.78,6,3,9,0.15
2013-8-27,78.1,72.0,68.4,70.6,68.7,66.9,96,90,75,29.84,29.78,3,1,6,0.00
2013-8-28,83.8,73.7,63.4,70.9,67.1,62.2,96,81,56,29.88,29.79,5,0,8,0.01
2013-8-29,78.6,69.7,64.2,69.1,64.8,62.1,95,85,64,29.99,29.88,4,1,6,0.00
2013-8-30,82.2,72.2,62.7,68.9,65.4,61.2,96,81,58,29.92,29.68,6,2,7,0.06
2013-8-31,76.7,71.1,66.8,69.1,67.4,65.6,97,89,71,29.74,29.66,2,0,6,0.00
2013-9-1,79.2,72.4,66.0,68.6,65.5,62.4,95,80,63,29.80,29.72,5,2,6,0.00
2013-9-2,75.8,67.9,63.5,69.2,64.8,62.1,97,90,78,29.71,29.57,3,1,6,0.45
2013-9-3,71.3,65.5,58.4,65.4,58.4,56.3,96,79,61,29.74,29.60,6,3,11,0.00
2013-9-4,66.6,61.8,57.3,60.8,57.5,50.3,96,86,73,29.86,29.74,6,2,6,0.03
2013-9-5,62.9,56.7,47.4,51.2,43.5,35.1,91,64,36,30.11,29.86,7,2,8,0.00
2013-9-6,68.3,56.2,42.6,49.6,43.2,39.8,92,65,36,30.18,29.95,8,3,12,0.00
2013-9-7,70.6,62.9,58.4,60.3,55.3,49.7,95,77,63,29.95,29.76,8,4,15,0.02
2013-9-8,62.4,57.8,47.6,60.2,46.2,37.9,96,68,41,30.04,29.74,7,3,11,0.02
2013-9-9,68.9,55.8,42.9,54.2,46.1,40.7,92,73,42,30.10,29.90,7,2,10,0.00
2013-9-10,70.8,62.7,55.7,66.4,60.5,51.6,97,93,85,29.92,29.82,3,0,6,0.36
2013-9-11,89.7,77.5,65.3,73.1,69.9,63.8,96,79,54,29.88,29.78,7,3,14,0.86
2013-9-12,73.9,70.4,65.6,70.1,67.7,62.3,97,91,78,29.81,29.56,6,2,14,1.30
2013-9-13,64.7,55.6,51.4,61.1,50.4,45.8,92,83,75,29.88,29.59,6,4,18,0.00
2013-9-14,62.7,53.2,46.0,46.9,43.9,41.1,85,72,49,29.99,29.86,4,2,14,0.00
2013-9-15,67.9,58.0,48.9,56.1,50.5,45.8,92,77,58,30.01,29.93,7,4,14,0.04
2013-9-16,55.6,51.5,47.1,53.9,42.8,34.8,96,74,48,30.30,29.93,7,4,14,0.17
2013-9-17,65.0,50.7,38.2,46.2,41.0,36.6,95,73,42,30.42,30.24,3,1,14,0.00
2013-9-18,72.1,56.2,42.8,51.5,45.5,40.9,94,71,37,30.23,30.03,4,1,14,0.00
2013-9-19,76.5,60.1,44.3,57.4,50.4,42.7,95,74,40,30.05,29.94,4,1,14,0.00
2013-9-20,82.8,65.6,51.3,60.7,55.4,49.6,95,73,39,29.96,29.72,6,1,9,0.00
2013-9-21,72.0,65.8,59.9,63.5,59.2,55.8,97,80,64,29.72,29.50,7,3,10,1.20
2013-9-22,59.6,53.2,47.9,58.7,48.1,41.6,97,83,67,29.89,29.47,5,2,7,0.30
2013-9-23,53.2,48.6,43.8,43.3,40.7,38.9,86,74,62,30.04,29.90,3,1,7,0.00
2013-9-24,65.2,52.9,43.9,47.7,42.8,40.1,89,70,45,30.02,29.87,5,1,7,0.00
2013-9-25,68.4,53.8,42.3,50.6,45.2,41.0,96,76,47,29.92,29.87,2,1,4,0.00
2013-9-26,64.0,40.6,48.8,49.2,4.2,-99.9,92,50,53,30.11,30.03,5,-292,7,0.00
2013-9-27,66.1,54.5,43.6,52.6,48.3,42.3,95,81,57,30.22,30.11,5,1,7,0.00
2013-9-28,72.8,56.7,43.9,54.4,49.4,42.6,96,79,47,30.30,30.14,2,0,5,0.00
2013-9-29,76.0,59.5,45.8,52.7,48.3,43.9,95,72,33,30.14,29.94,6,1,7,0.00
2013-9-30,75.8,60.3,47.7,56.2,51.3,46.1,94,75,44,29.98,29.88,3,0,3,0.00
2013-10-1,74.2,64.2,55.6,60.1,54.7,52.1,90,73,49,29.90,29.77,5,2,10,0.00
2013-10-2,78.3,67.3,58.0,62.1,52.4,43.4,91,63,30,29.90,29.74,7,4,11,0.00
2013-10-3,73.2,59.9,50.1,52.9,47.5,43.7,88,66,36,30.05,29.91,3,1,6,0.00
2013-10-4,62.1,56.6,50.1,51.3,48.9,45.5,93,76,63,30.03,29.97,6,2,7,0.00
2013-10-5,65.6,58.4,53.2,47.0,43.7,39.7,79,59,40,30.08,30.02,6,2,8,0.00
2013-10-6,57.3,53.8,50.2,56.5,45.7,36.3,97,76,53,30.06,29.75,7,3,10,0.50
2013-10-7,77.9,63.4,54.8,62.5,56.3,44.4,97,79,54,29.79,29.45,13,6,18,0.45
2013-10-8,60.9,51.0,42.1,42.6,39.6,36.1,90,67,41,30.30,29.82,6,2,9,0.45
2013-10-9,67.6,50.2,37.2,46.1,40.6,35.1,93,74,39,30.38,30.24,4,0,9,0.00
2013-10-10,69.6,54.9,39.5,49.3,43.1,37.6,94,69,33,30.25,30.11,0,0,2,0.00
2013-10-11,70.8,52.8,39.5,48.7,44.1,37.9,95,77,32,30.13,30.06,4,1,7,0.00
2013-10-12,71.3,55.3,43.6,54.0,49.0,42.0,96,82,49,30.20,30.09,5,1,10,0.00
2013-10-13,69.3,56.7,45.1,55.0,50.1,43.8,97,81,53,30.28,30.16,3,1,6,0.00
2013-10-14,67.8,59.1,50.8,57.5,54.1,49.0,95,85,53,30.22,30.14,5,2,8,0.09
2013-10-15,64.0,54.0,44.6,52.2,49.2,43.5,97,85,60,30.22,29.95,3,0,4,0.00
2013-10-16,70.1,60.1,53.2,56.7,52.2,45.9,93,77,50,29.94,29.67,9,2,11,0.12
2013-10-17,59.3,58.8,57.8,57.3,56.8,55.5,95,93,92,29.68,29.65,7,4,8,0.31
2013-10-18,60.5,52.4,44.8,45.3,42.7,41.4,89,71,50,29.79,29.66,9,3,22,0.00
2013-10-19,62.6,56.9,44.8,48.0,45.1,41.1,90,65,52,29.77,29.51,10,3,11,0.04
2013-10-20,56.5,49.3,42.5,48.3,38.6,31.7,91,69,40,29.90,29.49,8,5,18,0.11
2013-10-21,63.1,50.8,36.9,45.0,38.9,34.9,93,68,40,29.93,29.67,8,2,14,0.00
2013-10-22,62.1,50.2,40.6,48.8,37.0,25.3,93,63,36,29.68,29.59,9,5,14,0.09
2013-10-23,48.9,41.9,35.5,35.0,31.9,25.0,91,69,47,29.67,29.58,6,2,8,0.00
2013-10-24,44.5,38.7,31.5,33.3,30.0,25.1,90,71,58,29.82,29.61,6,3,9,0.00
2013-10-25,43.6,38.2,30.4,31.6,28.1,25.6,82,68,51,30.04,29.83,6,2,7,0.00
2013-10-26,42.3,38.9,30.3,37.9,33.9,25.8,94,82,72,30.01,29.65,11,6,20,0.13
2013-10-27,46.7,42.1,38.2,39.3,34.6,29.2,94,76,51,29.92,29.64,7,3,11,0.06
2013-10-28,44.1,40.2,29.5,39.9,29.3,17.7,88,67,36,30.35,29.86,9,4,13,0.02
2013-10-29,42.5,31.4,23.2,27.9,22.5,19.3,90,72,40,30.43,30.27,4,1,5,0.00
2013-10-30,42.8,37.0,30.6,36.8,31.4,23.0,94,80,66,30.26,30.11,5,2,9,0.02
2013-10-31,62.0,48.2,34.6,56.8,45.3,33.1,97,90,80,30.11,29.40,9,3,12,0.13
2013-11-1,64.8,58.9,51.4,59.6,51.1,43.7,93,76,55,29.51,29.03,18,11,31,0.63
2013-11-2,52.9,42.5,35.2,46.5,37.0,22.3,94,81,59,29.92,29.52,10,4,10,0.00
2013-11-3,38.5,34.8,31.3,22.6,18.5,14.4,70,52,38,30.46,29.92,8,4,9,0.00
2013-11-4,38.5,30.2,21.3,21.7,17.9,15.5,85,62,41,30.65,30.46,5,1,8,0.00
2013-11-5,55.1,41.4,29.4,35.2,26.3,19.3,76,57,35,30.52,30.27,6,1,8,0.00
2013-11-6,62.1,53.0,40.2,49.7,40.3,33.9,82,63,46,30.27,29.62,13,4,13,0.00
2013-11-7,58.3,45.4,34.9,53.7,36.7,23.5,93,72,53,29.83,29.57,12,4,12,0.10
2013-11-8,38.3,37.4,35.2,29.7,25.7,22.4,77,63,53,30.07,29.78,6,3,14,0.00
2013-11-9,40.3,34.8,27.2,34.2,26.3,19.5,93,72,43,30.13,29.75,4,1,8,0.00
2013-11-10,44.6,40.9,35.2,42.3,37.9,29.9,95,89,79,29.89,29.59,7,4,13,0.13
2013-11-11,39.3,35.5,27.3,37.2,28.6,19.1,94,77,61,30.03,29.73,8,5,12,0.26
2013-11-12,29.4,26.7,22.9,18.5,15.5,11.4,72,62,56,30.27,29.96,7,4,13,0.26
2013-11-13,34.7,26.8,20.2,27.3,15.1,6.9,78,62,42,30.30,29.86,8,4,13,0.00
2013-11-14,46.5,40.5,35.5,34.4,29.0,24.5,74,64,49,29.90,29.86,9,5,21,0.00
2013-11-15,52.5,44.8,36.6,31.2,26.6,21.6,68,49,42,30.04,29.90,10,4,21,0.00
2013-11-16,56.7,41.1,31.9,33.7,30.4,27.4,84,68,39,30.16,30.04,6,1,21,0.00
2013-11-17,60.2,48.9,31.3,54.1,43.6,27.3,90,82,66,30.08,29.38,8,2,21,0.08
2013-11-18,61.6,49.6,32.8,55.1,38.2,25.6,91,66,46,29.60,29.20,16,11,24,0.02
2013-11-19,33.5,31.3,27.0,27.4,18.5,15.5,80,59,52,30.36,29.61,7,4,21,0.03
2013-11-20,37.8,27.9,20.0,20.6,17.8,15.1,84,67,43,30.59,30.37,3,0,21,0.00
2013-11-21,46.1,37.2,20.8,26.4,21.1,13.9,85,54,27,30.46,30.24,3,0,5,0.00
2013-11-22,43.3,38.3,34.0,42.3,34.9,24.2,97,88,65,30.24,29.77,8,1,10,0.10
2013-11-23,34.0,28.1,20.5,28.5,20.5,11.2,88,73,63,29.98,29.77,9,5,10,0.01
2013-11-24,21.6,16.1,12.1,10.3,4.6,0.8,72,60,45,30.30,29.91,7,5,14,0.01
2013-11-25,34.4,21.8,8.8,18.9,9.6,1.3,73,60,41,30.35,29.99,8,4,15,0.00
2013-11-26,37.5,34.1,31.8,31.9,26.1,18.8,96,73,54,30.09,29.84,8,4,11,0.14
2013-11-27,33.7,31.3,22.9,32.9,29.5,17.4,97,93,79,29.83,29.40,8,2,11,0.87
2013-11-28,25.0,19.6,10.2,15.8,10.2,4.7,78,67,52,30.39,29.60,7,4,13,0.00
2013-11-29,23.3,12.2,4.7,11.9,5.8,-0.1,87,76,58,30.72,30.39,3,0,13,0.00
2013-11-30,23.2,14.3,2.4,17.2,8.4,-2.9,84,77,69,30.73,30.19,2,0,13,0.00
2013-12-1,32.9,28.5,21.3,30.8,25.9,17.2,95,90,84,30.17,29.97,2,0,13,0.02
2013-12-2,32.5,31.1,29.4,30.4,29.5,28.4,96,94,90,29.96,29.83,2,0,13,0.02
2013-12-3,35.3,31.2,23.0,32.2,28.8,21.3,95,91,81,29.97,29.83,1,0,13,0.00
2013-12-4,34.3,28.3,21.9,30.5,25.5,20.2,93,89,81,30.08,29.97,2,0,13,0.00
2013-12-5,54.2,43.0,34.7,49.7,36.3,23.5,92,78,56,30.01,29.61,7,4,21,0.02
2013-12-6,37.9,34.6,31.6,22.3,20.9,18.1,64,57,51,30.11,30.00,4,2,15,0.00
2013-12-7,31.0,27.1,23.6,16.7,12.5,9.7,58,54,48,30.42,30.11,6,3,10,0.00
2013-12-8,30.6,24.6,20.2,15.9,12.9,10.0,73,61,46,30.52,30.36,2,0,10,0.00
2013-12-9,38.0,30.1,24.2,34.9,24.1,15.4,95,79,61,30.34,29.68,10,4,16,0.13
2013-12-10,34.6,26.0,18.6,21.7,13.2,6.6,78,59,47,29.87,29.75,13,4,15,0.13
2013-12-11,18.3,17.6,16.5,9.3,7.8,6.8,68,65,62,29.90,29.87,4,3,14,0.00
2013-12-12,19.7,16.6,9.7,11.5,5.3,-5.0,76,61,43,30.10,29.82,7,5,21,0.00
2013-12-13,9.5,1.7,-5.0,-4.5,-9.7,-12.7,73,58,44,30.57,30.12,6,2,15,0.00
2013-12-14,6.3,4.2,3.4,1.4,-3.5,-6.7,80,70,60,30.49,29.99,6,4,22,0.00
2013-12-15,16.2,8.7,-0.8,12.5,3.8,-7.1,87,80,67,30.02,29.56,4,2,15,0.00
2013-12-16,5.4,2.1,-0.8,-3.5,-5.4,-7.1,74,70,64,30.03,29.94,4,3,8,0.00
2013-12-17,7.0,4.9,-0.2,2.7,0.4,-5.4,83,81,78,30.07,29.94,5,2,6,0.00
2013-12-18,24.2,14.4,5.0,20.9,10.1,0.4,88,83,79,29.96,29.87,2,0,5,0.00
2013-12-19,33.8,29.3,19.9,27.3,24.4,16.7,93,82,73,29.99,29.80,6,2,8,0.00
2013-12-20,31.2,23.9,19.4,28.0,21.3,16.2,94,90,84,29.98,29.83,7,3,10,0.00
2013-12-21,22.2,21.6,20.8,20.2,19.5,18.3,92,92,90,29.95,29.75,6,3,7,0.00
2013-12-22,21.3,20.1,18.9,19.1,17.9,16.5,92,91,90,29.95,29.68,9,5,12,0.00
2013-12-23,23.5,20.3,15.7,21.5,17.8,11.5,92,90,82,30.19,29.92,3,1,5,0.00
2013-12-24,14.9,7.4,2.4,10.1,1.6,-3.2,81,77,72,30.38,30.19,3,1,6,0.00
2013-12-25,8.3,1.7,-7.0,0.6,-4.1,-13.1,81,76,69,30.53,30.27,3,1,6,0.00
2013-12-26,22.5,13.8,5.4,20.0,10.2,0.8,91,85,81,30.25,30.02,4,0,5,0.00
2013-12-27,27.6,22.1,14.8,24.0,19.1,12.1,92,88,81,30.14,30.02,4,1,9,0.00
2013-12-28,37.0,34.0,19.1,33.1,30.4,16.4,90,87,84,30.01,29.84,7,4,12,0.32
2013-12-29,36.0,27.3,20.6,32.7,24.8,16.8,95,90,85,29.89,29.51,5,2,7,0.36
2013-12-30,22.1,7.9,-0.6,18.6,-1.8,-9.4,89,65,50,30.22,29.51,5,2,19,0.00
2013-12-31,9.0,4.1,-0.8,3.5,-3.1,-8.6,84,72,50,30.18,29.91,2,0,19,0.00
2014-1-1,5.2,-0.5,-11.5,0.4,-9.0,-21.2,81,67,49,30.48,30.09,5,1,19,0.00
2014-1-2,-8.4,-10.5,-11.7,-15.6,-20.2,-24.0,70,62,52,30.47,30.11,8,5,19,0.00